Des Moines, IA

10:57 AM CDT on August 18, 2017 (GMT -0500)
Des Moines International

Weather History for KDSM - January, 2012

Change the Weather History Date:

Monday, January 30, 2012

  Actual Average Record
Temperature  
Mean Temperature 51 °F 23 °F  
Max Temperature 65 °F 32 °F 65 °F (2012)
Min Temperature 36 °F 15 °F -17 °F (1965)
Degree Days  
Heating Degree Days 14 42  
Month to date heating degree days 1044 1274  
Since 1 July heating degree days 3106 3741  
Cooling Degree Days 0 0  
Month to date cooling degree days 0 0  
Year to date cooling degree days 0 0  
Moisture  
Dew Point 27 °F    
Average Humidity 41    
Maximum Humidity 57    
Minimum Humidity 24    
Precipitation  
Precipitation 0.00 in 0.04 in 0.35 in (2013)
Month to date precipitation 0.42 0.96  
Year to date precipitation 0.42 0.96  
Snow  
Snow 0.00 in 0.30 in 6.10 in (2013)
Month to date snowfall 4.4 8.2  
Since 1 July snowfall 10.1 20.1  
Snow Depth 0.00 in    
Sea Level Pressure  
Sea Level Pressure 29.80 in    
Wind  
Wind Speed 13 mph (SSW)    
Max Wind Speed 23 mph    
Max Gust Speed 30 mph    
Visibility 10 miles    
Events      
T = Trace of Precipitation, MM = Missing Value Source: NWS Daily Summary

Daily Weather History Graph

Daily Weather History Graph

Search for Another Location

Airport or City:

Trip Planner

Search our weather history database for the weather conditions in past years. The results will help you decide how hot, cold, wet, or windy it might be!

Date:

Astronomy

Jan. 30, 2012 Rise Set
Actual Time 7:28 AM CST 5:27 PM CST
Civil Twilight 6:59 AM CST 5:57 PM CST
Nautical Twilight 6:25 AM CST 6:30 PM CST
Astronomical Twilight 5:53 AM CST 7:02 PM CST
Moon 10:45 AM CST (1/30) 12:18 AM CST (1/30)
Length of Visible Light 10h 57m
Length of Day
9h 58m
Waxing Crescent, 46% of the Moon is Illuminated
Jan 30
Waxing Crescent
Jan 30
First Quarter
Feb 7
Full
Feb 14
Last Quarter
Feb 21
New

Hourly Weather History & Observations

Time (CST) Temp. Windchill Dew Point Humidity Pressure Visibility Wind Dir Wind Speed Gust Speed Precip Events Conditions
12:54 AM 37.0 °F 28.5 °F 19.9 °F 50% 29.97 in 10.0 mi SSE 13.8 mph - N/A   Overcast
1:54 AM 36.0 °F 29.6 °F 21.0 °F 55% 29.94 in 10.0 mi South 8.1 mph - N/A   Overcast
2:54 AM 37.9 °F 30.9 °F 21.9 °F 53% 29.90 in 10.0 mi South 10.4 mph - N/A   Overcast
3:54 AM 39.9 °F 32.9 °F 23.0 °F 51% 29.88 in 10.0 mi SSW 11.5 mph - N/A   Overcast
4:54 AM 41.0 °F 34.3 °F 24.1 °F 51% 29.85 in 10.0 mi SSW 11.5 mph - N/A   Overcast
5:54 AM 42.1 °F 35.2 °F 26.1 °F 53% 29.83 in 10.0 mi SSW 12.7 mph - N/A   Overcast
6:54 AM 45.0 °F 38.5 °F 26.1 °F 48% 29.82 in 10.0 mi SSW 13.8 mph - N/A   Overcast
7:54 AM 43.0 °F 37.2 °F 27.0 °F 53% 29.83 in 10.0 mi SSW 10.4 mph - N/A   Mostly Cloudy
8:54 AM 43.0 °F 36.8 °F 28.0 °F 56% 29.83 in 10.0 mi SSW 11.5 mph - N/A   Mostly Cloudy
9:54 AM 48.2 °F - 28.4 °F 46% 29.81 in 10.0 mi SW 13.8 mph - N/A   Scattered Clouds
10:54 AM 52.0 °F - 26.1 °F 37% 29.82 in 10.0 mi SW 17.3 mph 24.2 mph N/A   Scattered Clouds
11:54 AM 57.0 °F - 27.0 °F 32% 29.79 in 10.0 mi SSW 21.9 mph 26.5 mph N/A   Scattered Clouds
12:54 PM 61.0 °F - 26.1 °F 26% 29.76 in 10.0 mi SW 18.4 mph 23.0 mph N/A   Partly Cloudy
1:54 PM 64.4 °F - 26.6 °F 24% 29.74 in 10.0 mi SSW 15.0 mph - N/A   Partly Cloudy
2:54 PM 64.0 °F - 26.1 °F 24% 29.73 in 10.0 mi SW 15.0 mph 25.3 mph N/A   Partly Cloudy
3:54 PM 64.9 °F - 27.0 °F 24% 29.73 in 10.0 mi SW 12.7 mph - N/A   Partly Cloudy
4:54 PM 61.0 °F - 28.0 °F 29% 29.74 in 10.0 mi SW 11.5 mph - N/A   Partly Cloudy
5:54 PM 55.0 °F - 27.0 °F 34% 29.75 in 10.0 mi SSW 9.2 mph - N/A   Partly Cloudy
6:54 PM 54.0 °F - 28.0 °F 37% 29.75 in 10.0 mi South 11.5 mph - N/A   Clear
7:54 PM 51.1 °F - 28.0 °F 41% 29.75 in 10.0 mi South 10.4 mph - N/A   Clear
8:54 PM 50.0 °F - 28.9 °F 44% 29.76 in 10.0 mi South 10.4 mph - N/A   Clear
9:54 PM 54.0 °F - 32.0 °F 43% 29.75 in 10.0 mi SSW 15.0 mph - N/A   Clear
10:54 PM 53.1 °F - 34.0 °F 48% 29.76 in 10.0 mi SSW 11.5 mph - N/A   Partly Cloudy
11:54 PM 52.0 °F - 35.1 °F 53% 29.77 in 10.0 mi SW 15.0 mph - N/A   Partly Cloudy